Weather History for Spirit of St Louis, MO

Change the Weather History Date:

Wednesday, April 17, 2013

  Actual Average Record
Temperature  
Mean Temperature 67 °F -  
Max Temperature 86 °F 66 °F 89 °F (2004)
Min Temperature 50 °F 43 °F 29 °F (1997)
Cooling Degree Days 2    
Growing Degree Days 17 (Base 50)    
Moisture  
Dew Point 55 °F    
Average Humidity 76    
Maximum Humidity 94    
Minimum Humidity 47    
Precipitation  
Precipitation 0.00 in - - ()
Sea Level Pressure  
Sea Level Pressure 29.94 in    
Wind  
Wind Speed 8 mph (SE)    
Max Wind Speed 16 mph    
Max Gust Speed 25 mph    
Visibility 7 miles    
Events      
Averages and records for this station are not official NWS values.
T = Trace of Precipitation, MM = Missing Value Source: NWS Daily Summary

Daily Weather History Graph

Daily Weather History Graph

Search for Another Location

Airport:

Trip Planner

Search our weather history database for the weather conditions in past years. The results will help you decide how hot, cold, wet, or windy it might be!

Date:

Astronomy

Apr. 17, 2013 Rise Set
Actual Time 6:23 AM CDT 7:41 PM CDT
Civil Twilight 5:55 AM CDT 8:09 PM CDT
Nautical Twilight 5:22 AM CDT 8:42 PM CDT
Astronomical Twilight 4:48 AM CDT 9:17 PM CDT
Moon 11:38 AM CDT (4/17) 1:18 AM CDT (4/17)
Length of Visible Light 14h 13m
Length of Day
13h 18m
Waxing Crescent, 42% of the Moon is Illuminated
Apr 17
Waxing Crescent
Apr 18
First Quarter
Apr 25
Full
May 2
Last Quarter
May 9
New

Hourly Weather History & Observations

Time (CDT) Temp. Heat Index Dew Point Humidity Pressure Visibility Wind Dir Wind Speed Gust Speed Precip Events Conditions
12:31 AM 50.0 °F - 44.6 °F 82% 30.11 in 10.0 mi East 6.9 mph - N/A   Overcast
12:54 AM 50.0 °F - 45.0 °F 83% 30.13 in 10.0 mi ENE 5.8 mph - N/A   Overcast
1:54 AM 50.0 °F - 45.0 °F 83% 30.11 in 10.0 mi ENE 6.9 mph - N/A   Overcast
2:54 AM 50.0 °F - 46.0 °F 86% 30.11 in 6.0 mi East 5.8 mph - N/A   Overcast
3:54 AM 50.0 °F - 46.9 °F 89% 30.10 in 6.0 mi East 3.5 mph - N/A   Overcast
4:54 AM 50.0 °F - 46.9 °F 89% 30.08 in 4.0 mi East 6.9 mph - N/A   Overcast
5:01 AM 50.0 °F - 46.4 °F 87% 30.07 in 4.0 mi East 6.9 mph - N/A   Overcast
5:54 AM 50.0 °F - 48.0 °F 93% 30.06 in 3.0 mi East 5.8 mph - N/A   Overcast
6:54 AM 50.0 °F - 48.0 °F 93% 30.06 in 2.5 mi East 6.9 mph - N/A   Overcast
7:54 AM 51.1 °F - 48.9 °F 92% 30.06 in 2.5 mi East 6.9 mph - N/A   Overcast
8:00 AM 51.8 °F - 48.2 °F 88% 30.06 in 2.5 mi East 5.8 mph - N/A   Overcast
8:41 AM 51.8 °F - 50.0 °F 94% 30.05 in 1.8 mi East 8.1 mph - N/A   Overcast
8:54 AM 51.8 °F - 50.0 °F 94% 30.04 in 1.8 mi East 8.1 mph - N/A   Overcast
9:54 AM 55.0 °F - 52.0 °F 89% 30.02 in 2.0 mi SE 8.1 mph - N/A   Overcast
10:07 AM 55.4 °F - 53.6 °F 94% 30.01 in 2.0 mi SSE 9.2 mph - N/A   Overcast
10:54 AM 61.0 °F - 55.9 °F 83% 29.99 in 4.0 mi SE 9.2 mph 17.3 mph N/A   Haze
11:28 AM 64.4 °F - 59.0 °F 83% 29.97 in 6.0 mi SSE 8.1 mph - N/A   Haze
11:45 AM 66.2 °F - 60.8 °F 83% 29.97 in 7.0 mi South 5.8 mph - N/A   Mostly Cloudy
11:54 AM 68.0 °F - 61.0 °F 78% 29.96 in 8.0 mi South 9.2 mph 16.1 mph N/A   Mostly Cloudy
12:54 PM 75.0 °F - 64.9 °F 71% 29.91 in 10.0 mi SSW 8.1 mph - N/A   Partly Cloudy
1:54 PM 77.0 °F - 64.0 °F 64% 29.88 in 10.0 mi SSE 13.8 mph 25.3 mph N/A   Clear
2:54 PM 82.0 °F 83.4 °F 64.0 °F 54% 29.83 in 10.0 mi South 12.7 mph 21.9 mph N/A   Mostly Cloudy
3:54 PM 84.9 °F 86.1 °F 64.0 °F 49% 29.78 in 10.0 mi South 16.1 mph 25.3 mph N/A   Scattered Clouds
4:54 PM 84.9 °F 85.9 °F 63.0 °F 48% 29.75 in 10.0 mi SSE 10.4 mph 20.7 mph N/A   Scattered Clouds
6:54 PM 82.0 °F 82.4 °F 60.1 °F 47% 29.70 in 10.0 mi Variable 6.9 mph - N/A   Mostly Cloudy
7:54 PM 81.0 °F 81.3 °F 59.0 °F 47% 29.69 in 10.0 mi South 8.1 mph - N/A   Clear
8:54 PM 80.1 °F 81.1 °F 61.0 °F 52% 29.69 in 10.0 mi South 10.4 mph - N/A   Mostly Cloudy
9:54 PM 79.0 °F - 62.1 °F 56% 29.68 in 10.0 mi South 10.4 mph 20.7 mph N/A   Overcast
10:54 PM 78.1 °F - 62.1 °F 58% 29.66 in 10.0 mi South 15.0 mph 24.2 mph N/A   Overcast
11:54 PM 77.0 °F - 63.0 °F 62% 29.64 in 10.0 mi South 16.1 mph 24.2 mph N/A   Clear